Location: �perlecques
(50.8057°N, 2.1521°E)
Time: 16:56:12
(UTC+00:00)

KKS-1 - Pass Details

Date: 01 April 2023
Orbit: 633 x 644 km, 98.2° (Epoch: 03 June)

Event Time Altitude Azimuth Distance (km) Brightness Sun altitude
Rises 23:55:04 0° 3° (N) 2,945 ? -34.4°
Reaches altitude 10° 23:57:43 10° 348° (NNW) 2,031 ? -34.4°
Enters shadow 23:59:36 18° 325° (NW) 1,576 ? -34.4°
